Location: Aldenham
(51.6667°N, 0.3500°W)
Time: 01:54:53
(UTC+00:00)

A-11 Canister half - Pass Details

Date: 22 February 2026
Orbit: 1513 x 1687 km, 47.2° (Epoch: 13 March)

Event Time Altitude Azimuth Distance (km) Brightness Sun altitude
Rises 20:56:31 0° 242° (WSW) 4,937 12.1 -32.1°
Reaches altitude 10° 20:59:44 10° 239° (WSW) 3,948 11.4 -32.6°
Enters shadow 21:09:06 60° 176° (S) 1,867 9.1 -33.8°
Maximum altitude 21:09:38 61° 162° (SSE) 1,856 - -33.9°
Drops below altitude 10° 21:19:20 10° 86° (E) 3,869 - -35.2°
Sets 21:22:28 0° 83° (E) 4,834 - -35.6°
